Weather Service Report


645 
ASUS41 KBTV 231930
RWRBTV
VERMONT REGIONAL WEATHER ROUNDUP
NATIONAL WEATHER SERVICE BURLINGTON VT
300 PM EDT WED APR 23 2014

NOTE: "FAIR" INDICATES FEW OR NO CLOUDS BELOW 12,000 FEET WITH NO 
SIGNIFICANT WEATHER AND/OR OBSTRUCTIONS TO VISIBILITY.

* THESE REPORTS ARE NOT UNDER NWS QUALITY CONTROL AND/OR DO NOT
  REPORT WEATHER SUCH AS PRECIPITATION AND FOG.

VTZ001>019-232000-
_____VERMONT_____

  
CITY           SKY/WX    TMP DP  RH WIND       PRES   REMARKS
BURLINGTON     CLOUDY    50  34  54 NW16G26   29.63R                  
MONTPELIER     CLOUDY    42  34  73 NW9       29.62S                  
MORRISVILLE    CLOUDY    45  35  68 VRB3      29.61R                  
ST. JOHNSBURY*   N/A     44  34  67 MISG      29.56S                  
LYNDONVILLE*   CLOUDY    43  33  67 NW9       29.57                   
MIDDLEBURY*    CLOUDY    48  34  58 W14G21    29.61R                  
RUTLAND*       CLOUDY    46  32  57 N17G24    29.59S                  
SPRINGFIELD    CLOUDY    49  32  52 N15G25    29.56R                  
HIGHGATE*      CLOUDY    52  34  50 NW7       29.62R                  
NEWPORT*       MIX PCPN  43  35  72 NW9       29.58S                  
BENNINGTON     CLOUDY    49  39  68 N8        29.58S                  
SUTTON*          N/A     39 N/A N/A MISG        N/A                   
GALLUP MILLS*    N/A     28 N/A N/A MISG        N/A                   
UNION VILLAGE*   N/A     46 N/A N/A MISG        N/A                   
MT. MANSFIELD*   N/A     32 N/A N/A NW20        N/A                   

_____LAKE CHAMPLAIN_____

  
CITY           SKY/WX    TMP DP  RH WIND       PRES   REMARKS
BURTON ISLAND*   N/A     46  36  66 W17         N/A                   
COLCHESTER RF*   N/A     45  34  65 NW24        N/A                   
DIAMOND ISL*     N/A     50  32  50 NW14        N/A                   

$$

NYZ007-026>031-035-052-083-232000-
_____NORTHERN NEW YORK_____

  
CITY           SKY/WX    TMP DP  RH WIND       PRES   REMARKS
PLATTSBURGH    CLOUDY    50  33  52 NW18G31   29.63R                  
SARANAC LAKE   CLOUDY    38  34  85 VRB6      29.65R                  
MASSENA        CLOUDY    46  33  60 NW20G29   29.75R                  
OGDENSBURG*    MOCLDY    46  34  61 N13G23    29.78R                  
POTSDAM*       CLOUDY    45  36  70 NW16      29.75R                  
PARISHVILLE*     N/A     39 N/A N/A NW8         N/A                   
WATERTOWN      CLOUDY    47  30  51 NW12      29.80R                  
FT DRUM        CLOUDY    43  32  65 N14G20    29.78R                  
ALBANY         MOCLDY    54  37  52 W25G35    29.63R                  
GLENS FALLS    CLOUDY    55  32  41 NW17G30   29.63R                  

$$
NHZ002-005-011-232000-
_____NEW HAMPSHIRE_____

  
CITY           SKY/WX    TMP DP  RH WIND       PRES   REMARKS
LEBANON        CLOUDY    47  33  58 NW10G20   29.57R                  
KEENE          CLOUDY    52  32  46 N17G26    29.53S                  
MT WASHINGTON  FOG       21  21 100 NW46G58     N/A  VSB 0   WCI   0  
PLYMOUTH         N/A     45  35  69 NW10G17   29.54F                  
WHITEFIELD     CLOUDY    42  34  73 N8        29.56R                  

$$

_____REGIONAL QUEBEC LOCATIONS_____

  
CITY           SKY/WX    TMP DP  RH WIND       PRES   REMARKS
MONTREAL       CLOUDY    50  30  46 NW18G29   29.65R                  
QUEBEC CITY    MOCLDY    43  39  87 E6        29.57R                  
SHERBROOKE     CLOUDY    43  37  81 NW10      29.56R                  

_____REGIONAL ONTARIO LOCATIONS_____

  
CITY           SKY/WX    TMP DP  RH WIND       PRES   REMARKS
OTTAWA         MOCLDY    48  30  49 NW18G28   29.78R                  

______KEY______
VSB  - VISIBILITY IN MILES
WCI  - WIND CHILL INDEX
HX   - HEAT INDEX
$$
NNNN

Return to Home page


Western Regional Climate Center, wrcc@dri.edu